When you browse on this site, cookies collect data to enhance your experience and personalize the content and advertising you see.
Visit our Privacy Policy to learn more. By continuing to use the site, you agree to this use of cookies and data.
  • In Schweiz
  • Länderverzeichnis
  • Für 7 Tage
  • Wassertemperatur
  • Satellitenkarten
  • Wetterkarte
  • Widgets
  • user-avatar
    Anmelden

    Stündliche Wetter Eldoret

    Heute, 24 Juni, Montag

    Zeit Temperatur Niederschläge Wind Luftdruck Luftfeuchtigkeit
    00:00 +13°C° 0 mm 1 m/S 596 mmHg 95%
    01:00 +13°C° 0 mm 1 m/S 596 mmHg 94%
    02:00 +13°C° 0 mm 1 m/S 595 mmHg 94%
    03:00 +13°C° 0 mm 1 m/S 595 mmHg 94%
    04:00 +13°C° 0 mm 1 m/S 596 mmHg 93%
    05:00 +13°C° 0 mm 1 m/S 596 mmHg 92%
    06:00 +14°C° 0 mm 1 m/S 596 mmHg 91%
    07:00 +15°C° 0 mm 1 m/S 597 mmHg 90%
    08:00 +18°C° 0 mm 1 m/S 598 mmHg 87%
    09:00 +19°C° 0.4 mm 1 m/S 598 mmHg 82%
    10:00 +20°C° 0.4 mm 1 m/S 599 mmHg 76%
    11:00 +21°C° 0.4 mm 1 m/S 599 mmHg 70%
    12:00 +21°C° 0.3 mm 1 m/S 598 mmHg 72%
    13:00 +21°C° 0.3 mm 1 m/S 597 mmHg 74%
    14:00 +21°C° 0.3 mm 1 m/S 597 mmHg 76%
    15:00 +18°C° 0.3 mm 0 m/S 596 mmHg 80%
    16:00 +18°C° 0.3 mm 0 m/S 596 mmHg 85%
    17:00 +17°C° 0.3 mm 0 m/S 596 mmHg 89%
    18:00 +16°C° 0.2 mm 0 m/S 596 mmHg 90%
    19:00 +15°C° 0.2 mm 0 m/S 596 mmHg 91%
    20:00 +13°C° 0.2 mm 0 m/S 596 mmHg 93%
    21:00 +14°C° 0.1 mm 1 m/S 596 mmHg 93%
    22:00 +14°C° 0.1 mm 1 m/S 596 mmHg 93%
    23:00 +14°C° 0.1 mm 1 m/S 596 mmHg 94%

    Morgen, 25 Juni, Dienstag

    Zeit Temperatur Niederschläge Wind Luftdruck Luftfeuchtigkeit
    00:00 +13°C° 0 mm 1 m/S 595 mmHg 93%
    01:00 +13°C° 0 mm 1 m/S 595 mmHg 93%
    02:00 +13°C° 0 mm 1 m/S 595 mmHg 93%
    03:00 +13°C° 0 mm 1 m/S 595 mmHg 93%
    04:00 +13°C° 0 mm 1 m/S 595 mmHg 92%
    05:00 +13°C° 0 mm 1 m/S 595 mmHg 92%
    06:00 +15°C° 0 mm 1 m/S 596 mmHg 88%
    07:00 +18°C° 0 mm 1 m/S 597 mmHg 83%
    08:00 +20°C° 0 mm 1 m/S 598 mmHg 79%
    09:00 +21°C° 0.5 mm 1 m/S 599 mmHg 76%
    10:00 +22°C° 0.5 mm 1 m/S 599 mmHg 73%
    11:00 +22°C° 0.5 mm 1 m/S 599 mmHg 70%
    12:00 +22°C° 2.1 mm 1 m/S 598 mmHg 73%
    13:00 +22°C° 2.1 mm 1 m/S 597 mmHg 77%
    14:00 +22°C° 2.1 mm 1 m/S 597 mmHg 81%
    15:00 +21°C° 1.7 mm 1 m/S 596 mmHg 84%
    16:00 +20°C° 1.7 mm 1 m/S 596 mmHg 88%
    17:00 +17°C° 1.7 mm 0 m/S 596 mmHg 91%
    18:00 +16°C° 0.7 mm 0 m/S 596 mmHg 92%
    19:00 +15°C° 0.7 mm 0 m/S 596 mmHg 93%
    20:00 +14°C° 0.7 mm 0 m/S 596 mmHg 94%
    21:00 +14°C° 0.4 mm 0 m/S 596 mmHg 94%
    22:00 +14°C° 0.4 mm 0 m/S 596 mmHg 95%
    23:00 +14°C° 0.4 mm 0 m/S 597 mmHg 95%

    übermorgen, 26 Juni, Mittwoch

    Zeit Temperatur Niederschläge Wind Luftdruck Luftfeuchtigkeit
    00:00 +13°C° 0.1 mm 0 m/S 596 mmHg 95%
    01:00 +13°C° 0.1 mm 0 m/S 596 mmHg 96%
    02:00 +13°C° 0.1 mm 0 m/S 595 mmHg 96%
    03:00 +13°C° 0 mm 0 m/S 596 mmHg 96%
    04:00 +13°C° 0 mm 0 m/S 596 mmHg 96%
    05:00 +13°C° 0 mm 0 m/S 596 mmHg 95%
    06:00 +14°C° 0 mm 0 m/S 597 mmHg 94%
    07:00 +15°C° 0 mm 0 m/S 598 mmHg 93%
    08:00 +15°C° 0 mm 0 m/S 598 mmHg 91%
    09:00 +17°C° 0.5 mm 0 m/S 599 mmHg 87%
    10:00 +18°C° 0.5 mm 0 m/S 599 mmHg 84%
    11:00 +21°C° 0.5 mm 1 m/S 599 mmHg 80%
    12:00 +21°C° 1.9 mm 1 m/S 599 mmHg 81%
    13:00 +21°C° 1.9 mm 1 m/S 598 mmHg 82%
    14:00 +21°C° 1.9 mm 1 m/S 598 mmHg 83%
    15:00 +20°C° 1.7 mm 1 m/S 597 mmHg 85%
    16:00 +19°C° 1.7 mm 1 m/S 597 mmHg 88%
    17:00 +17°C° 1.7 mm 0 m/S 596 mmHg 91%
    18:00 +16°C° 0.4 mm 0 m/S 597 mmHg 91%
    19:00 +15°C° 0.4 mm 0 m/S 597 mmHg 92%
    20:00 +14°C° 0.4 mm 0 m/S 597 mmHg 93%
    21:00 +14°C° 0.2 mm 0 m/S 597 mmHg 93%
    22:00 +14°C° 0.2 mm 0 m/S 597 mmHg 93%
    23:00 +14°C° 0.2 mm 0 m/S 597 mmHg 93%

    27 Juni, Donnerstag

    Zeit Temperatur Niederschläge Wind Luftdruck Luftfeuchtigkeit
    00:00 +14°C° 0.1 mm 0 m/S 597 mmHg 94%
    01:00 +13°C° 0.1 mm 0 m/S 596 mmHg 94%
    02:00 +13°C° 0.1 mm 0 m/S 595 mmHg 94%
    03:00 +13°C° 0 mm 0 m/S 596 mmHg 95%
    04:00 +12°C° 0 mm 0 m/S 596 mmHg 95%
    05:00 +12°C° 0 mm 0 m/S 596 mmHg 95%
    06:00 +13°C° 0 mm 0 m/S 597 mmHg 93%
    07:00 +15°C° 0 mm 0 m/S 598 mmHg 90%
    08:00 +16°C° 0 mm 0 m/S 599 mmHg 88%
    09:00 +20°C° 0.3 mm 1 m/S 599 mmHg 82%
    10:00 +21°C° 0.3 mm 1 m/S 599 mmHg 75%
    11:00 +21°C° 0.3 mm 2 m/S 600 mmHg 69%
    12:00 +21°C° 0.5 mm 2 m/S 599 mmHg 70%
    13:00 +22°C° 0.5 mm 1 m/S 598 mmHg 72%
    14:00 +22°C° 0.5 mm 1 m/S 598 mmHg 73%
    15:00 +21°C° 0.8 mm 1 m/S 597 mmHg 79%
    16:00 +20°C° 0.8 mm 1 m/S 597 mmHg 85%
    17:00 +19°C° 0.8 mm 1 m/S 597 mmHg 92%
    18:00 +16°C° 0.3 mm 1 m/S 597 mmHg 93%
    19:00 +15°C° 0.3 mm 1 m/S 597 mmHg 94%
    20:00 +14°C° 0.3 mm 1 m/S 597 mmHg 96%
    21:00 +14°C° 0 mm 1 m/S 597 mmHg 96%
    22:00 +13°C° 0 mm 1 m/S 596 mmHg 96%
    23:00 +13°C° 0 mm 1 m/S 596 mmHg 96%

    28 Juni, Freitag

    Zeit Temperatur Niederschläge Wind Luftdruck Luftfeuchtigkeit
    00:00 +13°C° 0 mm 1 m/S 596 mmHg 96%
    01:00 +13°C° 0 mm 1 m/S 596 mmHg 96%
    02:00 +13°C° 0 mm 1 m/S 596 mmHg 96%
    03:00 +12°C° 0 mm 1 m/S 596 mmHg 96%
    04:00 +12°C° 0 mm 1 m/S 596 mmHg 95%
    05:00 +12°C° 0 mm 1 m/S 596 mmHg 95%
    06:00 +13°C° 0 mm 0 m/S 597 mmHg 91%
    07:00 +15°C° 0 mm 0 m/S 598 mmHg 87%
    08:00 +17°C° 0 mm 0 m/S 599 mmHg 83%
    09:00 +20°C° 0.1 mm 1 m/S 599 mmHg 76%
    10:00 +22°C° 0.1 mm 1 m/S 600 mmHg 68%
    11:00 +23°C° 0.1 mm 1 m/S 600 mmHg 61%
    12:00 +23°C° 1 mm 1 m/S 599 mmHg 68%
    13:00 +22°C° 1 mm 1 m/S 598 mmHg 76%
    14:00 +21°C° 1 mm 1 m/S 597 mmHg 83%
    15:00 +20°C° 1.2 mm 1 m/S 597 mmHg 86%
    16:00 +19°C° 1.2 mm 1 m/S 597 mmHg 89%
    17:00 +17°C° 1.2 mm 0 m/S 597 mmHg 92%
    18:00 +15°C° 0.5 mm 0 m/S 597 mmHg 93%
    19:00 +14°C° 0.5 mm 0 m/S 597 mmHg 93%
    20:00 +13°C° 0.5 mm 0 m/S 597 mmHg 94%
    21:00 +13°C° 0.3 mm 0 m/S 597 mmHg 94%
    22:00 +14°C° 0.3 mm 1 m/S 597 mmHg 94%
    23:00 +13°C° 0.3 mm 1 m/S 597 mmHg 95%

    29 Juni, Samstag

    Zeit Temperatur Niederschläge Wind Luftdruck Luftfeuchtigkeit
    00:00 +13°C° 0.3 mm 1 m/S 596 mmHg 94%
    01:00 +14°C° 0.3 mm 1 m/S 596 mmHg 94%
    02:00 +14°C° 0.3 mm 1 m/S 596 mmHg 93%
    03:00 +14°C° 0.1 mm 1 m/S 596 mmHg 93%
    04:00 +13°C° 0.1 mm 1 m/S 596 mmHg 92%
    05:00 +13°C° 0.1 mm 1 m/S 596 mmHg 92%
    06:00 +15°C° 0 mm 1 m/S 597 mmHg 89%
    07:00 +16°C° 0 mm 1 m/S 598 mmHg 85%
    08:00 +19°C° 0 mm 1 m/S 599 mmHg 82%
    09:00 +20°C° 0.5 mm 1 m/S 599 mmHg 79%
    10:00 +21°C° 0.5 mm 1 m/S 600 mmHg 76%
    11:00 +22°C° 0.5 mm 1 m/S 600 mmHg 72%
    12:00 +22°C° 1.5 mm 1 m/S 599 mmHg 76%
    13:00 +22°C° 1.5 mm 1 m/S 599 mmHg 79%
    14:00 +21°C° 1.5 mm 1 m/S 598 mmHg 83%
    15:00 +20°C° 1.4 mm 1 m/S 598 mmHg 86%
    16:00 +18°C° 1.4 mm 0 m/S 597 mmHg 89%
    17:00 +17°C° 1.4 mm 0 m/S 597 mmHg 92%
    18:00 +16°C° 1 mm 0 m/S 597 mmHg 93%
    19:00 +16°C° 1 mm 1 m/S 597 mmHg 93%
    20:00 +14°C° 1 mm 1 m/S 597 mmHg 94%
    21:00 +14°C° 0.3 mm 1 m/S 597 mmHg 93%
    22:00 +14°C° 0.3 mm 1 m/S 597 mmHg 93%
    23:00 +14°C° 0.3 mm 1 m/S 597 mmHg 93%
    Mehr zeigen